Location: Croydon
(51.3762°N, 0.0982°W)
Time: 21:02:10
(UTC+00:00)

Altair - Pass Details

Date: 20 November 2019
Orbit: 1502 x 1682 km, 47.2° (Epoch: 05 December)

Event Time Altitude Azimuth Distance (km) Brightness Sun altitude
Rises 05:38:04 0° 264° (W) 4,635 - -16.4°
Reaches altitude 10° 05:41:05 10° 263° (W) 3,654 - -15.9°
Exits shadow 05:42:50 18° 261° (W) 3,098 8.5 -15.7°
Maximum altitude 05:50:10 70° 182° (S) 1,600 7.6 -14.6°
Drops below altitude 10° 05:59:27 10° 102° (ESE) 3,728 11.0 -13.2°
Sets 06:02:33 0° 100° (E) 4,734 12.1 -12.7°
